Globalstar
NORAD ID: 25649
Int'l Code: 1999-012A
Perigee: 1,675.1 km
Apogee: 1,679.5 km
Inclination: 52.0 °
Period: 119.8 minutes
Semi major axis: 8048 km
Launch date: March 15, 1999
Source: Globalstar (GLOB)
Two Line Element Set (TLE):
1 25649U 99012A 13143.14478104 -.00000011 00000-0 91077-3 0 685
2 25649 052.0060 032.6035 0002725 099.2780 067.2603 12.02384839646179
Source: AFSPC
NASA's NSSDC Master Catalog entry for GLOBALSTAR M022